Delavan, Wisconsin, United States (53115)
Lat: 42.63N, Lon: 88.64W
Wx Zone: WIZ070
Local Info
Past Weather Observations for Today

NOTE: This archive is for the closest National Weather Service station to Delavan. Information may differ from the station used for current weather conditions.

Click here for Long-term Archive

Time Weather Temperature Dewpoint Humidity Pressure Winds Precip Visibility
10:55
Overcast
50°F / 10°C 43°F / 6°C 76% 30.04 in
(1017 mb)
NE 15 mph
(NE 24 kph)
- 10SM
10:35
Overcast
48°F / 9°C 43°F / 6°C 82% 30.04 in
(1017 mb)
NE 11.5 mph
(NE 19 kph)
- 10SM
10:15
Overcast
46°F / 8°C 43°F / 6°C 87% 30.04 in
(1017 mb)
NE 11.5 mph
(NE 19 kph)
- 10SM
09:55
Overcast
46°F / 8°C 45°F / 7°C 93% 30.04 in
(1017 mb)
NE 13.8 mph
(NE 22 kph)
- 10SM
09:35
Overcast
45°F / 7°C 45°F / 7°C 100% 30.04 in
(1017 mb)
NE 6.9 mph
(NE 11 kph)
- 10SM
09:15
Overcast
45°F / 7°C 43°F / 6°C 93% 30.04 in
(1017 mb)
ENE 6.9 mph
(ENE 11 kph)
- 10SM
08:55
Overcast
Fog And Mist
43°F / 6°C 43°F / 6°C 100% 30.04 in
(1017 mb)
NE 9.2 mph
(NE 15 kph)
- 4SM
08:35
Overcast
Fog And Mist
43°F / 6°C 43°F / 6°C 100% 30.04 in
(1017 mb)
NE 10.4 mph
(NE 17 kph)
- 2 1/2SM
08:15
Overcast
Drizzle
43°F / 6°C 43°F / 6°C 100% 30.01 in
(1016 mb)
NE 13.8 mph
(NE 22 kph)
- 2 1/2SM
07:55
Overcast
Fog And Mist
43°F / 6°C 41°F / 5°C 93% 30.04 in
(1017 mb)
NE 10.4 mph
(NE 17 kph)
- 1 3/4SM
07:35
Overcast
Fog And Mist
43°F / 6°C 41°F / 5°C 93% 30.04 in
(1017 mb)
NE 9.2 mph
(NE 15 kph)
- 2SM
07:15
Overcast
Fog And Mist
43°F / 6°C 41°F / 5°C 93% 30.04 in
(1017 mb)
NE 9.2 mph
(NE 15 kph)
- 4SM
06:55
Overcast
Fog And Mist
41°F / 5°C 41°F / 5°C 100% 30.04 in
(1017 mb)
NE 9.2 mph
(NE 15 kph)
- 3SM
06:35
Overcast
Fog And Mist
41°F / 5°C 41°F / 5°C 100% 30.01 in
(1016 mb)
NE 11.5 mph
(NE 19 kph)
- 4SM
06:15
Overcast
Fog And Mist
41°F / 5°C 41°F / 5°C 100% 30.01 in
(1016 mb)
NE 10.4 mph
(NE 17 kph)
- 4SM
05:55
Overcast
Fog And Mist
41°F / 5°C 41°F / 5°C 100% 30.01 in
(1016 mb)
NE 15 mph
(NE 24 kph)
- 3SM
05:35
Overcast
Fog And Mist
41°F / 5°C 41°F / 5°C 100% 29.98 in
(1015 mb)
NE 12.7 mph
(NE 20 kph)
- 2 1/2SM
05:15
Overcast
Fog And Mist
41°F / 5°C 41°F / 5°C 100% 29.98 in
(1015 mb)
NE 10.4 mph
(NE 17 kph)
- 2SM
04:55
Overcast
Fog And Mist
41°F / 5°C 41°F / 5°C 100% 29.98 in
(1015 mb)
NE 11.5 mph
(NE 19 kph)
- 3SM
04:35
Overcast
Fog And Mist
41°F / 5°C 41°F / 5°C 100% 29.98 in
(1015 mb)
NE 11.5 mph
(NE 19 kph)
- 3SM
04:15
Overcast
Fog And Mist
41°F / 5°C 41°F / 5°C 100% 29.98 in
(1015 mb)
NE 9.2 mph
(NE 15 kph)
- 4SM
03:55
Overcast
Fog And Mist
43°F / 6°C 41°F / 5°C 93% 29.98 in
(1015 mb)
NE 12.7 mph
(NE 20 kph)
- 4SM
03:35
Overcast
Fog And Mist
43°F / 6°C 41°F / 5°C 93% 29.98 in
(1015 mb)
NE 10.4 mph
(NE 17 kph)
- 5SM
03:15
Overcast
Fog And Mist
43°F / 6°C 41°F / 5°C 93% 29.98 in
(1015 mb)
NE 10.4 mph
(NE 17 kph)
- 4SM
02:55
Overcast
Fog And Mist
43°F / 6°C 43°F / 6°C 100% 29.98 in
(1015 mb)
NE 11.5 mph
(NE 19 kph)
- 3SM
02:35
Overcast
Fog And Mist
43°F / 6°C 43°F / 6°C 100% 29.98 in
(1015 mb)
NE 8.1 mph
(NE 13 kph)
- 4SM
02:15
Overcast
Fog And Mist
43°F / 6°C 43°F / 6°C 100% 29.98 in
(1015 mb)
NE 11.5 mph
(NE 19 kph)
- 3SM
01:55
Overcast
Fog And Mist
43°F / 6°C 43°F / 6°C 100% 29.95 in
(1014 mb)
NE 9.2 mph
(NE 15 kph)
- 4SM
01:35
Overcast
Fog And Mist
43°F / 6°C 43°F / 6°C 100% 29.95 in
(1014 mb)
NE 8.1 mph
(NE 13 kph)
- 4SM
01:15
Overcast
Fog And Mist
43°F / 6°C 43°F / 6°C 100% 29.98 in
(1015 mb)
NE 8.1 mph
(NE 13 kph)
- 4SM
00:55
Overcast
Fog And Mist
43°F / 6°C 43°F / 6°C 100% 29.95 in
(1014 mb)
NE 8.1 mph
(NE 13 kph)
- 3SM
00:35
Overcast
Fog And Mist
43°F / 6°C 43°F / 6°C 100% 29.98 in
(1015 mb)
ENE 10.4 mph
(ENE 17 kph)
- 4SM
00:15
Overcast
Fog And Mist
43°F / 6°C 43°F / 6°C 100% 29.95 in
(1014 mb)
ENE 11.5 mph
(ENE 19 kph)
- 4SM
Time Weather Temperature Dewpoint Humidity Pressure Winds Precip Visibility


Weather for websites

WeatherForYou.com, LLC is not responsible for any damages or problems caused by this service. Current weather conditions are obtained from the closest station including government and personal stations which may have varying degrees of accuracy. Weather forecasts are derived from the NOAA NDFD. Like all things, this site belongs to Jesus Christ... He just trusts us to maintain it. If you have any questions or comments email webmaster@weatherforyou.com

Copyright © 2016, WeatherForYou.com LLC. All rights reserved.